Weather History for Mobile, AL

Change the Weather History Date:

Monday, December 9, 2013

  Actual Average Record
Temperature  
Mean Temperature 63 °F 54 °F  
Max Temperature 69 °F 64 °F 80 °F (1986)
Min Temperature 56 °F 43 °F 22 °F (1917)
Degree Days  
Heating Degree Days 2 12  
Month to date heating degree days 50 101  
Since 1 July heating degree days 334 359  
Cooling Degree Days 0 0  
Month to date cooling degree days 19 8  
Year to date cooling degree days 2514 2511  
Growing Degree Days 12 (Base 50)    
Moisture  
Dew Point 58 °F    
Average Humidity 83    
Maximum Humidity 100    
Minimum Humidity 66    
Precipitation  
Precipitation T in 0.16 in 2.78 in (1952)
Month to date precipitation 0.91 1.45  
Year to date precipitation 62.82 62.54  
Snow  
Snow 0.00 in 0.00 in 0.00 in (2002)
Month to date snowfall 0.0 0.0  
Since 1 July snowfall 0.0 0.0  
Snow Depth 0.00 in    
Sea Level Pressure  
Sea Level Pressure 30.08 in    
Wind  
Wind Speed 6 mph (North)    
Max Wind Speed 13 mph    
Max Gust Speed 20 mph    
Visibility 7 miles    
Events Rain    
T = Trace of Precipitation, MM = Missing Value Source: NWS Daily Summary

Daily Weather History Graph

Daily Weather History Graph

Search for Another Location

Airport:

Trip Planner

Search our weather history database for the weather conditions in past years. The results will help you decide how hot, cold, wet, or windy it might be!

Date:

Astronomy

Dec. 09, 2013 Rise Set
Actual Time 6:39 AM CST 4:51 PM CST
Civil Twilight 6:12 AM CST 5:18 PM CST
Nautical Twilight 5:42 AM CST 5:48 PM CST
Astronomical Twilight 5:13 AM CST 6:17 PM CST
Moon 11:55 AM CST (12/9) No Moon Set
Length of Visible Light 11h 05m
Length of Day
10h 12m
Waxing Crescent, 51% of the Moon is Illuminated
Dec 9
Waxing Crescent
Dec 17
Full
Dec 25
Last Quarter
Jan 1
New
Jan 7
First Quarter

Hourly Weather History & Observations

Time (CST) Temp. Dew Point Humidity Pressure Visibility Wind Dir Wind Speed Gust Speed Precip Events Conditions
12:07 AM 69.8 °F 68.0 °F 94% 30.07 in 10.0 mi South 9.2 mph - N/A   Overcast
12:38 AM 69.8 °F 68.0 °F 94% 30.07 in 10.0 mi South 6.9 mph - N/A   Overcast
12:56 AM 69.1 °F 68.0 °F 96% 30.06 in 10.0 mi South 8.1 mph - N/A   Overcast
1:30 AM 69.8 °F 68.0 °F 94% 30.06 in 10.0 mi North - - N/A   Overcast
1:56 AM 69.1 °F 68.0 °F 96% 30.06 in 10.0 mi South 9.2 mph - N/A   Overcast
2:56 AM 69.1 °F 68.0 °F 96% 30.05 in 10.0 mi South 9.2 mph - 0.01 in   Overcast
3:56 AM 69.1 °F 69.1 °F 100% 30.05 in 10.0 mi SSW 9.2 mph - N/A   Overcast
4:17 AM 68.0 °F 68.0 °F 100% 30.06 in 8.0 mi West 6.9 mph - N/A   Overcast
4:56 AM 61.0 °F 61.0 °F 100% 30.06 in 3.0 mi WNW 5.8 mph - N/A   Overcast
5:04 AM 60.8 °F 60.8 °F 100% 30.07 in 2.5 mi WNW 3.5 mph - N/A   Overcast
5:25 AM 60.8 °F 60.8 °F 100% 30.07 in 1.5 mi Calm Calm - N/A   Overcast
5:56 AM 61.0 °F 61.0 °F 100% 30.08 in 0.8 mi WNW 5.8 mph - N/A   Overcast
6:23 AM 60.8 °F 60.8 °F 100% 30.09 in 2.0 mi NW 5.8 mph - N/A   Overcast
6:36 AM 57.2 °F 57.2 °F 100% 30.10 in 3.0 mi NNW 9.2 mph - 0.00 in Rain Light Rain
6:56 AM 57.0 °F 57.0 °F 100% 30.11 in 3.0 mi NNW 6.9 mph - 0.00 in Rain Light Rain
7:37 AM 55.4 °F 55.4 °F 100% 30.12 in 3.0 mi North 5.8 mph - 0.00 in   Overcast
7:42 AM 55.4 °F 55.4 °F 100% 30.12 in 3.0 mi North 6.9 mph - 0.00 in Rain Light Rain
7:56 AM 55.9 °F 55.9 °F 100% 30.12 in 3.0 mi North 6.9 mph - 0.00 in   Overcast
8:56 AM 57.0 °F 55.9 °F 96% 30.14 in 5.0 mi NNE 6.9 mph - N/A   Overcast
9:08 AM 57.2 °F 55.4 °F 94% 30.14 in 5.0 mi NNE 6.9 mph - N/A   Overcast
9:56 AM 57.9 °F 55.9 °F 93% 30.14 in 5.0 mi North 9.2 mph - N/A   Overcast
10:56 AM 57.9 °F 55.0 °F 90% 30.14 in 5.0 mi North 9.2 mph - N/A   Overcast
11:21 AM 60.8 °F 55.4 °F 82% 30.13 in 7.0 mi NNW 8.1 mph - N/A   Scattered Clouds
11:56 AM 63.0 °F 55.0 °F 75% 30.10 in 7.0 mi NNE 6.9 mph - N/A   Scattered Clouds
12:56 PM 64.9 °F 55.9 °F 73% 30.08 in 7.0 mi North 5.8 mph - N/A   Mostly Cloudy
1:06 PM 66.2 °F 55.4 °F 68% 30.08 in 10.0 mi NNE 4.6 mph - N/A   Mostly Cloudy
1:56 PM 69.1 °F 57.0 °F 65% 30.06 in 10.0 mi ENE 6.9 mph - N/A   Scattered Clouds
2:56 PM 69.1 °F 57.9 °F 68% 30.06 in 10.0 mi Variable 3.5 mph - N/A   Scattered Clouds
3:56 PM 66.9 °F 57.0 °F 70% 30.06 in 10.0 mi ENE 5.8 mph - N/A   Scattered Clouds
4:56 PM 62.1 °F 55.9 °F 80% 30.07 in 10.0 mi NNE 8.1 mph - N/A   Scattered Clouds
5:51 PM 60.8 °F 55.4 °F 82% 30.08 in 10.0 mi North 8.1 mph - N/A   Overcast
5:56 PM 60.1 °F 55.0 °F 83% 30.09 in 10.0 mi North 9.2 mph - N/A   Overcast
6:39 PM 57.2 °F 53.6 °F 88% 30.09 in 10.0 mi North 6.9 mph - N/A   Overcast
6:56 PM 57.9 °F 54.0 °F 87% 30.09 in 10.0 mi NNE 5.8 mph - N/A   Overcast
7:56 PM 57.0 °F 54.0 °F 89% 30.09 in 10.0 mi NNE 4.6 mph - N/A   Mostly Cloudy
8:31 PM 57.2 °F 53.6 °F 88% 30.09 in 7.0 mi NE 4.6 mph - N/A   Overcast
8:48 PM 57.2 °F 53.6 °F 88% 30.08 in 7.0 mi Calm Calm - N/A   Mostly Cloudy
8:56 PM 57.0 °F 54.0 °F 89% 30.08 in 7.0 mi Calm Calm - N/A   Mostly Cloudy
9:42 PM 57.2 °F 53.6 °F 88% 30.07 in 7.0 mi East 6.9 mph - N/A   Overcast
9:56 PM 57.0 °F 54.0 °F 89% 30.06 in 7.0 mi ESE 5.8 mph - N/A   Overcast
10:56 PM 57.0 °F 54.0 °F 89% 30.06 in 10.0 mi Calm Calm - N/A   Mostly Cloudy
11:14 PM 57.2 °F 53.6 °F 88% 30.06 in 10.0 mi Calm Calm - N/A   Mostly Cloudy
11:25 PM 57.2 °F 55.4 °F 94% 30.05 in 10.0 mi SE 4.6 mph - N/A   Mostly Cloudy
11:56 PM 57.9 °F 55.0 °F 90% 30.03 in 10.0 mi SE 6.9 mph - N/A   Overcast